Find Starlink 1191

NORAD ID: 45222 Int'l Des: 2020-012 Owner: SPXS Country: US Constellation: starlink operational
LEOCIRCULAR

現在のビュー

3D地球を読み込み中...

About Starlink 1191

Starlink 1191 (NORAD 45222) is a starlink constellation satellite (v1.0) launched Feb 17, 2020 by SPXS of US. It operates in LEO, CIRCULAR orbit with a mass of 260.00 kg.

次回通過

Passes for default location (London). Set your location on the main map for personalized predictions.

高度履歴

Loading altitude history...

軌道要素

1 45222U 20012AW 26263.15332825 .00045234 00000-0 71523-3 0 9997
2 45222 53.1489 161.6923 0001764 162.9621 197.1449 15.53038081365485
Epoch: Sep 20, 2026 • Age: 6 hours

現在のステータス

高度 426.4 km
遠地点 / 近地点 N/A
速度 7.66 km/s
衛星直下点 -52.91°S, 80.13°W
打ち上げ日 Feb 17, 2020
運用期間 6.5 years
タイプ internet

技術仕様

分類 Payload
質量 260.00 kg
乾燥質量 248.00 kg
長さ 0.20 m
スパン 9.00 m
形状 ? Box + pan
製造者 SPXS
バスタイプ Starlink
フェーズステータス In Orbit
所有者/国 SPXS/US

Most Searched